Location: Bismarck
(46.7731°N, 100.8200°W)
Time: 11:03:03
(UTC-05:00)

Amateur Radio Satellites - All Passes

Search period start: 29 June 2017 10:33
Search period end: 30 June 2017 10:33
Location: Bismarck, 46.7731°N, 100.8200°W

Satellite Date Start Highest point End Downlink Frequencies (MHz)
Time Altitude Azimuth
M-CUBED/EXP-1 PRIME 29 Jun 10:35:31 10:38:37 42° 255° (WSW) 10:41:46 437.505
ISS 29 Jun 10:38:25 10:41:32 39° 349° (NNW) 10:44:40 437.550
AO-73 29 Jun 10:46:25 10:50:50 67° 286° (WNW) 10:55:06 145.935
FO-29 29 Jun 10:57:50 11:04:08 68° 259° (W) 11:11:20 435.910
Tancredo 1 29 Jun 11:04:55 11:07:41 30° 1° (N) 11:10:27 437.200
TIGRISAT 29 Jun 11:07:35 11:12:12 66° 259° (W) 11:16:54 435.000
Oscar 11 29 Jun 11:08:30 11:12:41 50° 288° (WNW) 11:16:50 .
NANOSAT C BR1 29 Jun 11:09:18 11:10:13 11° 57° (ENE) 11:11:09 145.865
HO-68 29 Jun 11:12:32 11:18:08 25° 306° (NW) 11:23:42 435.675
EO-88 29 Jun 11:15:10 11:18:33 34° 97° (E) 11:21:53 145.990 - 145.960
CUBEBUG 2 29 Jun 11:15:42 11:18:21 15° 301° (WNW) 11:20:57 437.445
PRISM 29 Jun 11:18:58 11:22:47 40° 261° (W) 11:26:38 437.425
DELFI C3 29 Jun 11:19:21 11:23:16 61° 101° (E) 11:27:11 145.870
AIST 2D 29 Jun 11:19:48 11:22:35 22° 67° (ENE) 11:25:23 435.315
ZACube-1 29 Jun 11:24:36 11:28:20 27° 294° (WNW) 11:31:58 437.345
UWE-3 29 Jun 11:40:41 11:42:53 13° 302° (WNW) 11:45:01 435.000/436.395/437.385
PCSat 29 Jun 11:46:24 11:51:07 31° 111° (ESE) 11:55:51 145.827
POLYITAN 1 29 Jun 11:48:02 11:51:39 27° 66° (ENE) 11:55:17 437.675
UNISAT 6 29 Jun 11:52:12 11:55:57 24° 267° (W) 11:59:45 437.425
YUBILEINY 29 Jun 11:52:27 11:58:45 23° 283° (WNW) 12:05:02 435.215
QB50P2 29 Jun 11:58:46 12:02:41 37° 69° (ENE) 12:06:39 145.880/145.840
ISS 29 Jun 12:15:23 12:18:29 37° 9° (N) 12:21:35 437.550
EO-79 29 Jun 12:21:23 12:25:33 57° 72° (ENE) 12:29:47 145.935-145.965
Oscar 19 29 Jun 12:22:48 12:23:19 10° 52° (NE) 12:23:50 437.125/150
DUCHIFAT 1 29 Jun 12:30:04 12:34:14 57° 72° (ENE) 12:38:25 145.980
ESTCUBE 1 29 Jun 12:31:05 12:34:48 25° 94° (E) 12:38:29 437.505/2401.250
Tancredo 1 29 Jun 12:40:36 12:43:37 59° 20° (NNE) 12:46:38 437.200
NANOSAT C BR1 29 Jun 12:40:57 12:45:12 83° 75° (ENE) 12:49:30 145.865
FO-29 29 Jun 12:48:21 12:50:47 12° 281° (W) 12:53:18 435.910
EO-88 29 Jun 12:49:23 12:52:00 19° 295° (WNW) 12:54:36 145.990 - 145.960
AIST 2D 29 Jun 12:52:36 12:55:40 27° 264° (W) 12:58:45 435.315
DELFI C3 29 Jun 12:55:31 12:57:35 14° 298° (WNW) 12:59:39 145.870
LO-87 29 Jun 12:56:42 13:00:22 81° 104° (ESE) 13:04:01 145.935 - 145.965
AO-7 29 Jun 13:20:59 13:24:36 14° 35° (NE) 13:28:14 .
BUGSAT 1 29 Jun 13:22:25 13:26:33 65° 73° (ENE) 13:30:45 437.445
POLYITAN 1 29 Jun 13:23:28 13:27:19 33° 263° (W) 13:31:14 437.675
PCSat 29 Jun 13:29:06 13:34:19 48° 310° (NW) 13:39:36 145.827
QB50P2 29 Jun 13:35:08 13:38:35 23° 266° (W) 13:42:03 145.880/145.840
SPROUT 29 Jun 13:37:16 13:41:10 32° 96° (E) 13:45:00 437.525
50 SAT 29 Jun 13:41:39 13:43:09 12° 91° (E) 13:44:39 437.505
Gurwin Techsat 1B 29 Jun 13:46:18 13:51:00 33° 65° (ENE) 13:55:44 435.225
VELOX 1 29 Jun 13:49:32 13:53:42 38° 98° (E) 13:57:51 145.980
ISS 29 Jun 13:51:54 13:55:12 78° 209° (SSW) 13:58:29 437.550
DX 1 29 Jun 13:55:50 13:58:29 16° 91° (E) 14:01:07 434.975-435.025
Oscar 19 29 Jun 13:56:33 14:01:36 60° 71° (ENE) 14:06:40 437.125/150
EO-79 29 Jun 13:59:10 14:01:41 15° 270° (W) 14:04:13 145.935-145.965
UKube-1 29 Jun 14:04:22 14:06:20 13° 89° (E) 14:08:17 .
ESTCUBE 1 29 Jun 14:07:33 14:11:41 37° 292° (WNW) 14:15:49 437.505/2401.250
DUCHIFAT 1 29 Jun 14:07:47 14:10:15 15° 270° (W) 14:12:45 145.980
Tancredo 1 29 Jun 14:16:27 14:19:00 25° 219° (SW) 14:21:33 437.200
NANOSAT C BR1 29 Jun 14:20:49 14:21:30 10° 273° (W) 14:22:11 145.865
SO-50 29 Jun 14:42:27 14:46:58 71° 124° (SE) 14:51:29 436.795
ITAMSAT 1 29 Jun 14:45:45 14:49:09 18° 57° (ENE) 14:52:33 435.822/435.867
BUGSAT 1 29 Jun 15:00:21 15:02:21 13° 271° (W) 15:04:21 437.445
AO-7 29 Jun 15:07:32 15:15:17 45° 58° (ENE) 15:23:04 .
50 SAT 29 Jun 15:12:54 15:16:11 45° 288° (WNW) 15:19:27 437.505
SPROUT 29 Jun 15:13:18 15:16:58 28° 294° (WNW) 15:20:37 437.525
PCSat 29 Jun 15:16:15 15:19:07 14° 333° (NNW) 15:21:59 145.827
Gurwin Techsat 1B 29 Jun 15:25:56 15:30:52 38° 263° (W) 15:35:50 435.225
VELOX 1 29 Jun 15:26:21 15:29:58 25° 296° (WNW) 15:33:34 145.980
ISS 29 Jun 15:29:28 15:31:13 14° 226° (SW) 15:32:57 437.550
ITUPSAT 1 29 Jun 15:30:31 15:31:46 11° 87° (E) 15:33:02 437.325
DX 1 29 Jun 15:30:43 15:35:02 58° 288° (WNW) 15:39:20 434.975-435.025
BEESAT 29 Jun 15:36:34 15:38:50 13° 88° (E) 15:41:04 436.000
Oscar 19 29 Jun 15:37:38 15:41:19 20° 269° (W) 15:45:02 437.125/150
UKube-1 29 Jun 15:38:31 15:42:50 70° 287° (WNW) 15:47:08 .
MOZHAYETS 4 29 Jun 16:04:20 16:07:15 16° 90° (E) 16:10:08
ITAMSAT 1 29 Jun 16:22:47 16:27:59 78° 255° (WSW) 16:33:16 435.822/435.867
SO-50 29 Jun 16:24:18 16:27:53 22° 325° (NW) 16:31:28 436.795
CUBESAT XI-V 29 Jun 16:58:27 17:00:00 11° 87° (E) 17:01:33 437.345
AO-7 29 Jun 16:59:57 17:07:58 50° 259° (W) 17:16:04 .
ITUPSAT 1 29 Jun 17:05:29 17:10:19 87° 104° (ESE) 17:15:06 437.325
BEESAT 29 Jun 17:12:24 17:17:12 80° 285° (WNW) 17:21:57 436.000
DOVE 4 29 Jun 17:28:24 17:31:44 23° 64° (ENE) 17:35:12 437.250
MOZHAYETS 4 29 Jun 17:40:16 17:44:48 59° 288° (WNW) 17:49:17
NUDT-PHONESAT 29 Jun 17:56:58 17:59:01 14° 63° (ENE) 18:01:03 437.300
CUTE-I 29 Jun 17:59:56 18:04:20 27° 62° (ENE) 18:08:45 437.470
ITAMSAT 1 29 Jun 18:07:09 18:08:19 11° 274° (W) 18:09:29 435.822/435.867
HO-68 29 Jun 18:10:39 18:15:26 19° 50° (NE) 18:20:13 435.675
XW-2F 29 Jun 18:25:28 18:28:57 34° 70° (ENE) 18:32:25 145.980 - 146.000
XW-2D 29 Jun 18:32:35 18:36:14 44° 72° (ENE) 18:39:54 145.860 - 145.880
CUBESAT XI-V 29 Jun 18:33:22 18:37:59 84° 286° (WNW) 18:42:36 437.345
KKS-1 29 Jun 18:40:20 18:44:51 76° 104° (ESE) 18:49:20 437.445
XW-2B 29 Jun 18:41:37 18:45:22 54° 74° (ENE) 18:49:07 145.730 - 145.750
ITUPSAT 1 29 Jun 18:44:59 18:47:27 14° 303° (WNW) 18:49:56 437.325
LilacSat-2 29 Jun 18:46:26 18:50:16 67° 75° (ENE) 18:54:06 437.200
PCSat 29 Jun 18:48:14 18:51:11 14° 27° (NNE) 18:54:08 145.827
BEESAT 29 Jun 18:52:20 18:54:10 12° 305° (NW) 18:56:00 436.000
STARS 29 Jun 18:57:00 19:01:20 49° 100° (E) 19:05:38 437.465
XW-2C 29 Jun 18:57:16 19:01:06 85° 75° (ENE) 19:04:57 145.795 - 145.815
KAITUO 1B 29 Jun 18:59:48 19:03:33 70° 75° (ENE) 19:07:18 145.475/437.950
CUBEBUG 2 29 Jun 19:04:27 19:06:33 13° 57° (ENE) 19:08:39 437.445
DOVE 4 29 Jun 19:05:16 19:09:12 39° 263° (W) 19:13:22 437.250
XW-2A 29 Jun 19:08:08 19:09:24 12° 62° (ENE) 19:10:41 145.665 - 145.685
SEEDS 29 Jun 19:13:44 19:16:14 16° 62° (ENE) 19:18:45 437.485
UWE-3 29 Jun 19:28:06 19:30:20 13° 58° (ENE) 19:32:34 435.000/436.395/437.385
NUDT-PHONESAT 29 Jun 19:28:50 19:32:30 53° 260° (W) 19:36:11 437.300
CUTE 1.7 + AOD 2 29 Jun 19:38:30 19:42:28 40° 70° (ENE) 19:46:26 437.475
CUTE-I 29 Jun 19:38:57 19:44:06 50° 260° (W) 19:49:20 437.470
AAUSAT CUBESAT 2 29 Jun 19:50:14 19:52:59 18° 63° (ENE) 19:55:44 437.432
HO-68 29 Jun 19:54:54 20:02:05 78° 70° (ENE) 20:09:19 435.675
RS-15 29 Jun 19:55:22 20:04:43 27° 101° (E) 20:14:10 29.354- 29.394
XW-2F 29 Jun 20:00:19 20:03:10 20° 267° (W) 20:06:02 145.980 - 146.000
XW-2D 29 Jun 20:08:17 20:10:40 16° 269° (W) 20:13:02 145.860 - 145.880
AO-73 29 Jun 20:09:39 20:12:38 17° 61° (ENE) 20:15:37 145.935
CUBESAT XI-V 29 Jun 20:12:57 20:14:38 12° 303° (WNW) 20:16:18 437.345
XW-2B 29 Jun 20:18:03 20:19:53 13° 270° (W) 20:21:43 145.730 - 145.750
AO-85 29 Jun 20:18:10 20:21:45 31° 118° (ESE) 20:25:16 145.980
KKS-1 29 Jun 20:18:23 20:20:50 15° 301° (WNW) 20:23:16 437.445
LilacSat-2 29 Jun 20:23:59 20:24:59 11° 272° (W) 20:25:59 437.200
PCSat 29 Jun 20:30:38 20:35:56 49° 50° (NE) 20:41:11 145.827
Oscar 11 29 Jun 20:30:51 20:34:02 20° 63° (ENE) 20:37:11 .
STARS 29 Jun 20:34:05 20:37:21 20° 298° (WNW) 20:40:36 437.465
CUBEBUG 2 29 Jun 20:37:43 20:42:23 86° 77° (ENE) 20:47:11 437.445
XW-2A 29 Jun 20:38:19 20:41:41 55° 259° (W) 20:45:06 145.665 - 145.685
BEESAT 3 29 Jun 20:43:35 20:47:14 36° 119° (ESE) 20:50:56 437.485
ZACube-1 29 Jun 20:46:00 20:50:16 39° 69° (ENE) 20:54:33 437.345
SEEDS 29 Jun 20:47:21 20:51:29 59° 259° (W) 20:55:37 437.485
STRAND 1 29 Jun 21:00:21 21:05:25 54° 100° (E) 21:10:26 437.568
UWE-3 29 Jun 21:01:25 21:06:04 88° 260° (W) 21:10:48 435.000/436.395/437.385
YUBILEINY 29 Jun 21:05:14 21:11:15 21° 76° (ENE) 21:17:17 435.215
O/OREOS (USA 219) 29 Jun 21:07:45 21:11:22 24° 103° (ESE) 21:14:58 437.305
NO-84 29 Jun 21:12:15 21:15:39 31° 132° (SE) 21:19:18 435.350 FM
CUTE 1.7 + AOD 2 29 Jun 21:15:12 21:18:27 21° 267° (W) 21:21:41 437.475
AAUSAT CUBESAT 2 29 Jun 21:24:06 21:28:05 49° 260° (W) 21:32:06 437.432
SO-50 29 Jun 21:31:00 21:34:48 26° 38° (NE) 21:38:36 436.795
AO-73 29 Jun 21:43:51 21:48:23 63° 259° (W) 21:52:57 145.935
HO-68 29 Jun 21:45:06 21:50:33 23° 270° (W) 21:56:01 435.675
BEESAT 2 29 Jun 21:53:08 21:57:06 67° 123° (ESE) 22:01:08 435.950
EO-88 29 Jun 21:55:44 21:58:44 24° 67° (ENE) 22:01:46 145.990 - 145.960
AO-85 29 Jun 21:58:32 22:02:07 31° 317° (NW) 22:05:39 145.980
RS-15 29 Jun 22:03:17 22:15:32 86° 124° (SE) 22:27:58 29.354- 29.394
FO-29 29 Jun 22:04:39 22:10:22 21° 86° (E) 22:15:57 435.910
Oscar 11 29 Jun 22:05:39 22:09:51 47° 261° (W) 22:14:03 .
DELFI C3 29 Jun 22:07:09 22:10:56 49° 72° (ENE) 22:14:44 145.870
PCSat 29 Jun 22:14:26 22:19:06 30° 250° (WSW) 22:23:45 145.827
CUBEBUG 2 29 Jun 22:17:56 22:19:40 12° 274° (W) 22:21:25 437.445
BEESAT 3 29 Jun 22:21:18 22:24:52 30° 318° (NW) 22:28:28 437.485
ZACube-1 29 Jun 22:22:52 22:26:39 25° 267° (W) 22:30:27 437.345
STRAND 1 29 Jun 22:40:12 22:44:15 24° 299° (WNW) 22:48:18 437.568
UWE-3 29 Jun 22:42:01 22:43:13 11° 274° (W) 22:44:24 435.000/436.395/437.385
O/OREOS (USA 219) 29 Jun 22:46:14 22:50:32 42° 301° (WNW) 22:54:51 437.305
NO-84 29 Jun 22:49:10 22:53:03 54° 333° (NNW) 22:57:14 435.350 FM
TIGRISAT 29 Jun 22:56:51 23:00:29 22° 92° (E) 23:04:03 435.000
PRISM 29 Jun 22:57:31 23:00:41 21° 94° (E) 23:03:49 437.425
YUBILEINY 29 Jun 22:57:57 23:06:47 89° 97° (E) 23:15:42 435.215
SO-50 29 Jun 23:11:07 23:15:35 58° 238° (WSW) 23:20:02 436.795
EO-88 29 Jun 23:29:12 23:32:20 26° 265° (W) 23:35:30 145.990 - 145.960
BEESAT 2 29 Jun 23:32:14 23:35:16 20° 323° (NW) 23:38:19 435.950
ESTCUBE 1 29 Jun 23:33:06 23:37:06 33° 67° (ENE) 23:41:07 437.505/2401.250
LO-87 29 Jun 23:35:11 23:38:38 47° 72° (ENE) 23:42:07 145.935 - 145.965
UNISAT 6 29 Jun 23:39:48 23:44:26 62° 101° (E) 23:48:56 437.425
DELFI C3 29 Jun 23:43:45 23:46:00 15° 270° (W) 23:48:16 145.870
M-CUBED/EXP-1 PRIME 29 Jun 23:43:58 23:47:47 71° 109° (ESE) 23:51:53 437.505
FO-29 29 Jun 23:48:23 23:56:18 89° 102° (ESE) 00:04:02 435.910
AIST 2D 30 Jun 00:15:00 00:17:24 17° 92° (E) 00:19:47 435.315
RS-15 30 Jun 00:18:02 00:29:37 43° 332° (NNW) 00:41:11 29.354- 29.394
NANOSAT C BR1 30 Jun 00:24:42 00:25:52 11° 88° (E) 00:27:02 145.865
NO-84 30 Jun 00:27:44 00:31:20 27° 354° (N) 00:35:05 435.350 FM
PRISM 30 Jun 00:32:15 00:36:05 38° 291° (WNW) 00:39:55 437.425
TIGRISAT 30 Jun 00:32:58 00:37:23 44° 290° (WNW) 00:41:41 435.000
SPROUT 30 Jun 00:33:04 00:36:57 35° 69° (ENE) 00:40:53 437.525
VELOX 1 30 Jun 00:49:14 00:53:26 48° 70° (ENE) 00:57:40 145.980
DX 1 30 Jun 00:53:54 00:57:06 20° 63° (ENE) 01:00:18 434.975-435.025
YUBILEINY 30 Jun 00:58:09 01:04:54 24° 301° (WNW) 01:11:43 435.215
UKube-1 30 Jun 01:01:15 01:04:02 17° 61° (ENE) 01:06:50 .
POLYITAN 1 30 Jun 01:05:01 01:08:53 32° 96° (E) 01:12:42 437.675
ESTCUBE 1 30 Jun 01:10:01 01:13:55 29° 265° (W) 01:17:50 437.505/2401.250
LO-87 30 Jun 01:10:40 01:12:21 13° 270° (W) 01:14:03 145.935 - 145.965
QB50P2 30 Jun 01:16:00 01:20:07 45° 99° (E) 01:24:13 145.880/145.840
UNISAT 6 30 Jun 01:17:34 01:20:39 18° 299° (WNW) 01:23:40 437.425
M-CUBED/EXP-1 PRIME 30 Jun 01:19:59 01:21:50 13° 304° (WNW) 01:23:43 437.505
FO-29 30 Jun 01:34:22 01:40:23 25° 305° (NW) 01:46:22 435.910
EO-79 30 Jun 01:38:36 01:42:53 72° 102° (ESE) 01:47:08 145.935-145.965
DUCHIFAT 1 30 Jun 01:46:31 01:50:47 71° 102° (ESE) 01:55:00 145.980
50 SAT 30 Jun 01:46:51 01:50:13 84° 255° (WSW) 01:53:37 437.505
AIST 2D 30 Jun 01:47:33 01:50:43 32° 290° (WNW) 01:53:51 435.315
NANOSAT C BR1 30 Jun 01:57:51 02:02:09 79° 284° (WNW) 02:06:22 145.865
NO-84 30 Jun 02:05:55 02:09:49 33° 15° (NNE) 02:13:49 435.350 FM
Oscar 19 30 Jun 02:06:17 02:09:29 16° 89° (E) 02:12:41 437.125/150
SPROUT 30 Jun 02:09:25 02:12:56 25° 266° (W) 02:16:29 437.525
VELOX 1 30 Jun 02:27:02 02:30:08 19° 268° (W) 02:33:17 145.980
DX 1 30 Jun 02:28:49 02:32:59 46° 260° (W) 02:37:11 434.975-435.025
RS-15 30 Jun 02:35:22 02:46:16 34° 6° (N) 02:56:52 29.354- 29.394
UKube-1 30 Jun 02:35:25 02:39:38 57° 259° (WSW) 02:43:55 .
BUGSAT 1 30 Jun 02:36:21 02:40:37 75° 102° (ESE) 02:44:50 437.445
ITUPSAT 1 30 Jun 02:38:46 02:42:14 20° 60° (ENE) 02:45:42 437.325
POLYITAN 1 30 Jun 02:40:56 02:44:34 27° 294° (WNW) 02:48:10 437.675
BEESAT 30 Jun 02:45:01 02:48:44 23° 62° (ENE) 02:52:26 436.000
QB50P2 30 Jun 02:52:27 02:55:37 20° 297° (WNW) 02:58:46 145.880/145.840
AO-85 30 Jun 03:06:27 03:08:36 14° 31° (NNE) 03:10:48 145.980
MOZHAYETS 4 30 Jun 03:08:38 03:12:16 23° 64° (ENE) 03:15:55
EO-79 30 Jun 03:15:53 03:18:05 14° 301° (WNW) 03:20:17 145.935-145.965
BEESAT 3 30 Jun 03:21:08 03:22:54 12° 28° (NNE) 03:24:40 437.485
DUCHIFAT 1 30 Jun 03:23:41 03:25:54 14° 300° (WNW) 03:28:06 145.980
NANOSAT C BR1 30 Jun 03:36:59 03:37:05 10° 304° (WNW) 03:37:10 145.865
Gurwin Techsat 1B 30 Jun 03:38:34 03:43:53 68° 102° (ESE) 03:49:11 435.225
NO-84 30 Jun 03:43:28 03:47:51 89° 33° (NNE) 03:52:14 435.350 FM
Oscar 19 30 Jun 03:44:13 03:49:20 71° 287° (WNW) 03:54:26 437.125/150
CUBESAT XI-V 30 Jun 04:03:52 04:06:52 17° 61° (ENE) 04:09:53 437.345
KKS-1 30 Jun 04:07:16 04:09:21 13° 58° (ENE) 04:11:26 437.445
BUGSAT 1 30 Jun 04:13:20 04:15:24 13° 301° (WNW) 04:17:26 437.445
ITUPSAT 1 30 Jun 04:14:54 04:19:39 59° 259° (W) 04:24:25 437.325
BEESAT 30 Jun 04:21:32 04:26:11 50° 260° (W) 04:30:52 436.000
BEESAT 2 30 Jun 04:31:08 04:33:59 18° 35° (NE) 04:36:49 435.950
ITAMSAT 1 30 Jun 04:33:00 04:37:36 30° 95° (E) 04:42:08 435.822/435.867
MOZHAYETS 4 30 Jun 04:44:43 04:49:10 45° 262° (W) 04:53:38
AO-85 30 Jun 04:45:38 04:49:42 68° 51° (NE) 04:54:01 145.980
RS-15 30 Jun 04:50:07 05:02:11 55° 39° (NE) 05:13:41 29.354- 29.394
BEESAT 3 30 Jun 04:57:23 05:01:22 55° 49° (NE) 05:05:17 437.485
AO-7 30 Jun 04:57:45 05:05:51 49° 101° (E) 05:13:52 .
Gurwin Techsat 1B 30 Jun 05:19:31 05:23:19 20° 301° (WNW) 05:27:08 435.225
NO-84 30 Jun 05:21:55 05:24:58 19° 233° (SW) 05:27:59 435.350 FM
Oscar 19 30 Jun 05:25:54 05:27:45 12° 307° (NW) 05:29:35 437.125/150
O/OREOS (USA 219) 30 Jun 05:36:11 05:38:05 12° 43° (NE) 05:39:58 437.305
CUBESAT XI-V 30 Jun 05:39:11 05:43:47 63° 259° (WSW) 05:48:23 437.345
KKS-1 30 Jun 05:40:49 05:45:16 84° 257° (WSW) 05:49:45 437.445
STARS 30 Jun 05:55:58 06:00:18 63° 72° (ENE) 06:04:41 437.465
BEESAT 2 30 Jun 06:08:10 06:12:16 81° 235° (SW) 06:16:18 435.950
ITAMSAT 1 30 Jun 06:12:16 06:17:09 41° 294° (WNW) 06:22:02 435.822/435.867
AO-85 30 Jun 06:27:14 06:29:41 15° 248° (WSW) 06:32:11 145.980
BEESAT 3 30 Jun 06:35:53 06:38:33 17° 248° (WSW) 06:41:11 437.485
STRAND 1 30 Jun 06:42:26 06:45:35 17° 57° (ENE) 06:48:45 437.568
Tancredo 1 30 Jun 06:49:10 06:50:55 14° 136° (SE) 06:52:39 437.200
AO-7 30 Jun 06:50:43 06:58:34 46° 301° (WNW) 07:06:23 .
NUDT-PHONESAT 30 Jun 06:58:04 06:59:25 12° 89° (E) 07:00:45 437.300
DOVE 4 30 Jun 06:59:47 07:04:37 45° 98° (E) 07:09:36 437.250
RS-15 30 Jun 07:03:11 07:14:58 60° 245° (WSW) 07:26:09 29.354- 29.394
YUBILEINY 30 Jun 07:10:20 07:13:58 13° 47° (NE) 07:17:34 435.215
O/OREOS (USA 219) 30 Jun 07:13:49 07:18:19 75° 65° (ENE) 07:22:47 437.305
HO-68 30 Jun 07:22:52 07:25:00 11° 83° (E) 07:27:07 435.675
XW-2F 30 Jun 07:28:33 07:31:57 32° 97° (E) 07:35:20 145.980 - 146.000
STARS 30 Jun 07:34:35 07:37:03 15° 270° (W) 07:39:34 437.465
XW-2D 30 Jun 07:36:11 07:39:48 43° 99° (E) 07:43:22 145.860 - 145.880
XW-2B 30 Jun 07:45:17 07:49:00 53° 100° (E) 07:52:40 145.730 - 145.750
LilacSat-2 30 Jun 07:50:54 07:54:42 68° 102° (ESE) 07:58:26 437.200
CUTE-I 30 Jun 07:52:43 07:58:00 53° 100° (E) 08:03:14 437.470
XW-2C 30 Jun 08:01:01 08:04:49 85° 102° (ESE) 08:08:33 145.795 - 145.815
KAITUO 1B 30 Jun 08:01:57 08:05:39 67° 102° (ESE) 08:09:19 145.475/437.950
ISS 30 Jun 08:09:43 08:12:47 38° 144° (SE) 08:15:52 437.550
STRAND 1 30 Jun 08:18:58 08:24:07 82° 256° (WSW) 08:29:19 437.568
FO-29 30 Jun 08:22:39 08:25:53 14° 45° (NE) 08:29:13 435.910
Tancredo 1 30 Jun 08:23:03 08:26:04 89° 157° (SSE) 08:29:07 437.200
CUBEBUG 2 30 Jun 08:26:58 08:29:53 16° 89° (E) 08:32:44 437.445
SEEDS 30 Jun 08:28:52 08:31:47 18° 91° (E) 08:34:42 437.485
NUDT-PHONESAT 30 Jun 08:30:03 08:33:41 56° 286° (WNW) 08:37:16 437.300
DOVE 4 30 Jun 08:37:56 08:42:05 27° 295° (WNW) 08:46:22 437.250
AO-7 30 Jun 08:45:29 08:49:17 14° 325° (NW) 08:53:04 .
UWE-3 30 Jun 08:49:29 08:52:19 16° 89° (E) 08:55:05 435.000/436.395/437.385
O/OREOS (USA 219) 30 Jun 08:55:09 08:57:04 13° 262° (W) 08:58:59 437.305
CUTE 1.7 + AOD 2 30 Jun 08:55:46 08:59:54 53° 100° (E) 09:04:00 437.475
M-CUBED/EXP-1 PRIME 30 Jun 09:00:54 09:02:22 12° 56° (NE) 09:03:51 437.505
XW-2F 30 Jun 09:03:04 09:05:55 21° 294° (WNW) 09:08:44 145.980 - 146.000
AAUSAT CUBESAT 2 30 Jun 09:03:39 09:06:45 20° 92° (E) 09:09:50 437.432
YUBILEINY 30 Jun 09:04:43 09:13:21 53° 73° (ENE) 09:21:52 435.215
HO-68 30 Jun 09:07:00 09:14:09 64° 103° (ESE) 09:21:14 435.675
UNISAT 6 30 Jun 09:08:06 09:09:30 11° 56° (NE) 09:10:54 437.425
XW-2D 30 Jun 09:11:15 09:13:40 17° 296° (WNW) 09:16:04 145.860 - 145.880
RS-15 30 Jun 09:19:36 09:24:27 13° 269° (W) 09:29:15 29.354- 29.394
XW-2B 30 Jun 09:20:46 09:22:46 14° 298° (WNW) 09:24:45 145.730 - 145.750
LilacSat-2 30 Jun 09:27:03 09:28:26 12° 299° (WNW) 09:29:49 437.200
AO-73 30 Jun 09:29:43 09:33:02 21° 91° (E) 09:36:16 145.935
XW-2A 30 Jun 09:29:49 09:33:14 80° 283° (WNW) 09:36:36 145.665 - 145.685
CUTE-I 30 Jun 09:33:22 09:37:44 26° 299° (WNW) 09:42:05 437.470
KAITUO 1B 30 Jun 09:37:53 09:39:08 11° 299° (WNW) 09:40:22 145.475/437.950
ISS 30 Jun 09:46:02 09:49:15 49° 343° (NNW) 09:52:28 437.550
PRISM 30 Jun 09:49:32 09:52:42 22° 65° (ENE) 09:55:53 437.425
Oscar 11 30 Jun 09:50:06 09:53:42 25° 94° (E) 09:57:17 .
TIGRISAT 30 Jun 09:57:49 10:01:47 28° 65° (ENE) 10:05:48 435.000
Tancredo 1 30 Jun 09:59:05 10:01:52 33° 352° (N) 10:04:41 437.200
CUBEBUG 2 30 Jun 10:02:17 10:06:56 62° 287° (WNW) 10:11:26 437.445
STRAND 1 30 Jun 10:02:33 10:04:06 11° 274° (W) 10:05:40 437.568
FO-29 30 Jun 10:02:56 10:09:13 56° 67° (ENE) 10:16:19 435.910
SEEDS 30 Jun 10:03:44 10:07:43 44° 289° (WNW) 10:11:40 437.485
ZACube-1 30 Jun 10:07:21 10:11:43 54° 100° (E) 10:15:57 437.345
